TimePST,TemperatureF,Dew PointF,Humidity,Sea Level PressureIn,VisibilityMPH,Wind Direction,Wind SpeedMPH,Gust SpeedMPH,PrecipitationIn,Events,Conditions,WindDirDegrees,DateUTC
12:53 AM,41.0,37.9,89,30.09,10.0,East,3.5,-,N/A,,Scattered Clouds,100,2012-12-30 08:53:00
1:53 AM,41.0,39.0,93,30.09,10.0,East,4.6,-,N/A,,Mostly Cloudy,80,2012-12-30 09:53:00
2:53 AM,42.1,39.0,89,30.09,10.0,Calm,Calm,-,N/A,,Mostly Cloudy,0,2012-12-30 10:53:00
3:53 AM,39.9,37.9,93,30.07,10.0,Calm,Calm,-,N/A,,Mostly Cloudy,0,2012-12-30 11:53:00
4:53 AM,41.0,39.0,93,30.07,10.0,Calm,Calm,-,N/A,,Mostly Cloudy,0,2012-12-30 12:53:00
5:53 AM,39.9,37.9,93,30.08,10.0,Calm,Calm,-,N/A,,Scattered Clouds,0,2012-12-30 13:53:00
6:44 AM,39.2,37.4,93,30.10,10.0,Calm,Calm,-,N/A,,Mostly Cloudy,0,2012-12-30 14:44:00
6:53 AM,39.9,39.0,97,30.10,10.0,NE,3.5,-,N/A,,Mostly Cloudy,50,2012-12-30 14:53:00
7:36 AM,39.2,37.4,93,30.09,10.0,Calm,Calm,-,N/A,,Scattered Clouds,0,2012-12-30 15:36:00
7:53 AM,39.9,37.9,93,30.10,10.0,Variable,3.5,-,N/A,,Scattered Clouds,0,2012-12-30 15:53:00
8:53 AM,45.0,42.1,90,30.12,9.0,Calm,Calm,-,N/A,,Partly Cloudy,0,2012-12-30 16:53:00
9:53 AM,48.0,43.0,83,30.13,10.0,Variable,3.5,-,N/A,,Partly Cloudy,0,2012-12-30 17:53:00
10:53 AM,50.0,39.9,68,30.14,10.0,West,5.8,-,N/A,,Scattered Clouds,280,2012-12-30 18:53:00
11:53 AM,51.1,44.1,77,30.12,10.0,West,6.9,-,N/A,,Partly Cloudy,280,2012-12-30 19:53:00
12:53 PM,52.0,42.1,69,30.09,10.0,West,8.1,-,N/A,,Partly Cloudy,270,2012-12-30 20:53:00
1:53 PM,53.1,43.0,69,30.08,10.0,SW,4.6,-,N/A,,Partly Cloudy,230,2012-12-30 21:53:00
2:53 PM,55.9,41.0,57,30.08,10.0,WNW,9.2,-,N/A,,Partly Cloudy,290,2012-12-30 22:53:00
3:53 PM,55.0,39.9,57,30.09,10.0,WNW,10.4,-,N/A,,Partly Cloudy,300,2012-12-30 23:53:00
4:53 PM,52.0,41.0,66,30.09,10.0,WNW,8.1,-,N/A,,Partly Cloudy,300,2012-12-31 00:53:00
5:53 PM,50.0,45.0,83,30.10,10.0,WNW,5.8,-,N/A,,Partly Cloudy,300,2012-12-31 01:53:00
6:53 PM,50.0,44.1,80,30.12,10.0,NNW,3.5,-,N/A,,Clear,330,2012-12-31 02:53:00
7:53 PM,48.9,44.1,83,30.14,10.0,NW,5.8,-,N/A,,Clear,320,2012-12-31 03:53:00
8:53 PM,46.9,43.0,86,30.14,10.0,WNW,3.5,-,N/A,,Clear,300,2012-12-31 04:53:00
9:53 PM,48.0,43.0,83,30.17,10.0,NW,5.8,-,N/A,,Clear,310,2012-12-31 05:53:00
10:53 PM,43.0,41.0,93,30.19,10.0,Calm,Calm,-,N/A,,Clear,0,2012-12-31 06:53:00
11:53 PM,44.1,39.0,82,30.19,10.0,NNW,4.6,-,N/A,,Clear,330,2012-12-31 07:53:00